Location: Newark
(41.6500°N, 71.4833°W)
Time: 02:05:16
(UTC+00:00)

deb Explorer IX - Pass Details

Date: 02 February 2020
Orbit: 549 x 1099 km, 38.8° (Epoch: 25 February)

Event Time Altitude Azimuth Distance (km) Brightness Sun altitude
Rises 01:21:50 0° 261° (W) 3,484 ? -37.6°
Reaches altitude 10° 01:24:16 10° 259° (W) 2,622 ? -38.0°
Enters shadow 01:27:35 34° 251° (WSW) 1,558 ? -38.6°
Maximum altitude 01:30:38 70° 177° (S) 1,071 - -39.2°
Drops below altitude 10° 01:37:46 10° 95° (E) 2,914 - -40.5°
Sets 01:40:36 0° 94° (E) 3,896 - -41.0°
